EW4524 Weather Reports


time (UTC)temp
C
wind
direction
speed
KPH
gust
KPH
rain 1hr
cm
rain 24hr
cm
rain mn
cm
humidity
%
barometer
mb
20260510093020 13 62 6.4 16.1 0.00 0.84 0.00 78 1009.6
20260510091516 13 61 11.3 20.9 0.00 0.84 0.00 77 1009.4
20260510090022 14 42 11.3 22.5 0.00 0.84 0.00 75 1009.3
20260510084517 14 71 11.3 20.9 0.00 0.84 0.00 77 1009.3
20260510083012 13 67 12.9 24.1 0.00 0.84 0.00 78 1009.4
20260510081508 13 93 11.3 17.7 0.00 0.84 0.00 78 1009.5
20260510080010 13 130 11.3 20.9 0.00 0.84 0.00 78 1009.4
20260510074505 13 59 9.7 24.1 0.00 0.84 0.00 81 1009.3
20260510073002 12 19 9.7 17.7 0.00 0.84 0.00 83 1009.3
20260510071600 12 15 6.4 16.1 0.00 0.84 0.00 85 1009.4
20260510070057 12 51 8.0 16.1 0.00 0.84 0.00 86 1009.3
20260510064605 12 67 12.9 20.9 0.00 0.84 0.00 86 1009.3
20260510063053 12 47 4.8 24.1 0.00 0.84 0.00 87 1009.3
20260510061551 12 68 8.0 17.7 0.00 0.84 0.00 87 1009.3
20260510060047 12 58 3.2 17.7 0.00 0.84 0.00 89 1009.2
20260510054549 12 26 9.7 19.3 0.00 0.84 0.00 89 1009.0
20260510053044 12 57 8.0 14.5 0.00 0.84 0.00 90 1008.8
20260510051542 12 58 3.2 12.9 0.00 0.84 0.00 91 1008.8
20260510050041 12 43 4.8 11.3 0.00 0.84 0.00 91 1008.7
20260510044555 12 18 1.6 12.9 0.00 0.84 0.00 91 1008.6
20260510043039 12 9 3.2 12.9 0.00 0.84 0.00 91 1008.6
20260510041538 12 33 4.8 11.3 0.00 0.84 0.00 91 1008.7
20260510040035 12 50 1.6 12.9 0.00 0.84 0.00 91 1008.9
20260510034535 12 55 4.8 11.3 0.00 0.84 0.00 91 1009.0
20260510033033 12 20 6.4 12.9 0.00 0.84 0.00 91 1008.9
20260510031534 12 50 6.4 16.1 0.00 0.84 0.00 92 1009.1
20260510030036 12 57 3.2 16.1 0.00 0.84 0.00 92 1009.2
20260510024527 12 10 3.2 12.9 0.00 0.84 0.00 92 1009.2
20260510023026 12 5 3.2 12.9 0.00 0.84 0.00 91 1009.2
20260510021527 12 44 3.2 11.3 0.00 0.84 0.00 91 1009.4
20260510020026 12 5 1.6 8.0 0.00 0.84 0.00 91 1009.5
20260510014521 12 360 1.6 11.3 0.00 0.84 0.00 91 1009.5
20260510013023 12 34 3.2 8.0 0.00 0.84 0.00 90 1009.7
20260510011516 12 360 3.2 11.3 0.00 0.84 0.00 90 1009.9
20260510010016 12 333 3.2 8.0 0.00 0.84 0.00 90 1010.1
20260510004512 12 355 0.0 6.4 0.00 0.84 0.00 89 1010.3
20260510003021 12 44 0.0 6.4 0.00 0.84 0.00 89 1010.5
20260510001509 12 44 0.0 4.8 0.00 0.84 0.00 88 1010.6
20260510000008 12 11 1.6 8.0 0.00 0.84 0.00 88 1010.9
20260509234512 12 22 0.0 9.7 0.00 0.84 0.00 87 1011.1
20260509233004 12 43 1.6 4.8 0.00 0.84 0.00 86 1011.1
20260509231504 13 94 1.6 8.0 0.00 0.84 0.00 85 1011.1
20260509230001 13 94 1.6 8.0 0.00 0.84 0.00 86 1011.2
20260509224602 13 94 0.0 8.0 0.00 0.84 0.00 86 1011.3
20260509223059 13 82 1.6 12.9 0.00 0.84 0.00 86 1011.3
20260509221556 13 67 6.4 14.5 0.00 0.84 0.00 85 1011.2
20260509220057 13 74 3.2 9.7 0.00 0.84 0.00 86 1011.5
20260509214553 13 69 3.2 11.3 0.00 0.84 0.84 86 1011.7
20260509213053 13 71 4.8 16.1 0.00 0.84 0.84 86 1011.8
20260509211555 13 84 4.8 16.1 0.00 0.84 0.84 87 1011.7
20260509210052 13 89 11.3 19.3 0.00 0.84 0.84 86 1011.6
20260509204551 14 48 8.0 14.5 0.10 0.84 0.84 87 1011.8
20260509203114 14 123 4.8 12.9 0.18 0.84 0.84 88 1011.9
20260509201556 14 107 3.2 8.0 0.51 0.84 0.84 88 1011.9
20260509200056 13 38 0.0 9.7 0.66 0.84 0.84 87 1011.6
20260509194548 14 265 3.2 8.0 0.61 0.71 0.71 86 1011.7
20260509193054 14 49 1.6 11.3 0.61 0.66 0.66 84 1011.5
20260509191556 15 105 3.2 11.3 0.33 0.33 0.33 89 1012.0
20260509190044 15 207 4.8 12.9 0.18 0.18 0.18 86 1011.9
20260509184542 15 235 8.0 16.1 0.15 0.15 0.15 82 1011.1
20260509183044 16 344 3.2 9.7 0.05 0.05 0.05 76 1010.6
20260509181540 17 355 1.6 14.5 0.00 0.00 0.00 71 1010.3
20260509180039 18 360 4.8 12.9 0.00 0.00 0.00 67 1010.1
20260509174539 18 28 6.4 14.5 0.00 0.00 0.00 65 1010.0
20260509173039 18 71 4.8 16.1 0.00 0.00 0.00 64 1010.0
20260509171538 19 32 6.4 16.1 0.00 0.00 0.00 62 1010.0
20260509170038 20 20 8.0 16.1 0.00 0.00 0.00 59 1010.0
20260509164538 20 63 8.0 19.3 0.00 0.00 0.00 57 1009.9
20260509163035 21 72 6.4 16.1 0.00 0.00 0.00 52 1010.0
20260509161536 22 33 8.0 14.5 0.00 0.00 0.00 49 1010.2
20260509160034 22 77 8.0 22.5 0.00 0.00 0.00 52 1010.1
20260509154531 22 67 9.7 22.5 0.00 0.00 0.00 51 1010.3
20260509153031 21 69 8.0 17.7 0.00 0.00 0.00 53 1010.4
20260509151529 22 63 6.4 16.1 0.00 0.00 0.00 54 1010.5
20260509150027 22 110 11.3 19.3 0.00 0.00 0.00 53 1010.5
20260509144532 22 70 4.8 16.1 0.00 0.00 0.00 54 1010.7
20260509143026 22 90 6.4 16.1 0.00 0.00 0.00 50 1010.8
20260509141524 22 95 8.0 20.9 0.00 0.00 0.00 51 1010.9
20260509140022 22 12 8.0 17.7 0.00 0.00 0.00 51 1011.1
20260509134521 21 113 1.6 16.1 0.00 0.00 0.00 52 1011.2
20260509133022 21 124 6.4 17.7 0.00 0.00 0.00 52 1011.1
20260509131519 21 109 6.4 14.5 0.00 0.00 0.00 52 1011.3
20260509130030 21 102 4.8 20.9 0.00 0.00 0.00 52 1011.3
20260509124517 22 117 9.7 17.7 0.00 0.00 0.00 51 1011.5
20260509123019 21 93 4.8 14.5 0.00 0.00 0.00 50 1011.4
20260509121513 21 76 4.8 19.3 0.00 0.00 0.00 52 1011.5
20260509120011 20 75 9.7 16.1 0.00 0.00 0.00 53 1011.6
20260509114510 20 107 6.4 19.3 0.00 0.00 0.00 53 1011.7
20260509113011 21 103 11.3 24.1 0.00 0.00 0.00 52 1011.6
20260509111506 20 69 9.7 19.3 0.00 0.00 0.00 55 1011.5
20260509110005 20 138 6.4 22.5 0.00 0.00 0.00 57 1011.9
20260509104501 20 110 8.0 20.9 0.00 0.00 0.00 55 1012.0
20260509103105 20 63 11.3 19.3 0.00 0.00 0.00 55 1012.1
20260509101556 18 126 9.7 20.9 0.00 0.00 0.00 59 1012.2
20260509100054 18 69 6.4 14.5 0.00 0.00 0.00 61 1012.3
20260509094551 17 119 8.0 14.5 0.00 0.00 0.00 63 1012.3